Location: Estes P
(40.3770°N, 105.5210°W)
Time: 18:11:42
(UTC-06:00)

Amateur Radio Satellites - All Passes

Search period start: 16 October 2017 17:41
Search period end: 17 October 2017 17:41
Location: Estes P, 40.3770°N, 105.5210°W

Satellite Date Start Highest point End Downlink Frequencies (MHz)
Time Altitude Azimuth
NUDT-PHONESAT 16 Oct 17:46:53 17:49:46 21° 69° (ENE) 17:52:38 437.300
PCSat 16 Oct 17:54:44 17:59:28 30° 51° (NE) 18:04:10 145.827
XW-2C 16 Oct 18:03:40 18:07:21 50° 75° (ENE) 18:11:03 145.795 - 145.815
CUTE-I 16 Oct 18:20:55 18:26:10 70° 74° (ENE) 18:31:28 437.470
STARS 16 Oct 18:25:43 18:29:55 41° 99° (E) 18:34:05 437.465
nSIGHT-1 16 Oct 18:29:48 18:32:59 81° 219° (SW) 18:36:11 .
HO-68 16 Oct 18:41:28 18:48:17 50° 67° (ENE) 18:55:09 435.675
LilacSat-2 16 Oct 18:48:37 18:52:12 38° 262° (W) 18:55:48 437.200
ISS 16 Oct 18:51:47 18:55:00 55° 221° (SW) 18:58:12 437.550
CUTE 1.7 + AOD 2 16 Oct 18:52:00 18:55:55 38° 72° (ENE) 18:59:49 437.475
XW-2F 16 Oct 18:52:43 18:56:16 38° 262° (W) 18:59:49 145.980 - 146.000
XW-2A 16 Oct 18:55:45 18:57:11 12° 67° (ENE) 18:58:36 145.665 - 145.685
CUBESAT XI-V 16 Oct 18:57:26 18:59:17 12° 298° (WNW) 19:01:08 437.345
KAITUO 1B 16 Oct 18:58:24 19:01:58 42° 261° (W) 19:05:31 145.475/437.950
XW-2D 16 Oct 19:01:57 19:05:13 27° 264° (W) 19:08:30 145.860 - 145.880
CUBEBUG 2 16 Oct 19:07:31 19:11:41 35° 70° (ENE) 19:15:58 437.445
SEEDS 16 Oct 19:07:42 19:11:29 34° 71° (ENE) 19:15:16 437.485
XW-2B 16 Oct 19:15:45 19:18:36 20° 266° (W) 19:21:27 145.730 - 145.750
KKS-1 16 Oct 19:17:35 19:21:05 23° 293° (WNW) 19:24:34 437.445
NUDT-PHONESAT 16 Oct 19:20:28 19:23:29 23° 265° (W) 19:26:31 437.300
AO-73 16 Oct 19:24:24 19:27:01 15° 64° (ENE) 19:29:37 145.935
PCSat 16 Oct 19:37:55 19:42:57 41° 249° (WSW) 19:47:57 145.827
STRAND 1 16 Oct 19:40:17 19:44:25 24° 94° (E) 19:48:32 437.568
XW-2C 16 Oct 19:41:10 19:41:48 10° 269° (W) 19:42:26 145.795 - 145.815
ZACube-1 16 Oct 19:42:26 19:46:11 26° 68° (ENE) 19:49:58 437.345
AAUSAT CUBESAT 2 16 Oct 19:44:36 19:48:25 38° 72° (ENE) 19:52:14 437.432
UWE-3 16 Oct 19:54:13 19:58:45 63° 75° (ENE) 20:03:23 435.000/436.395/437.385
YUBILEINY 16 Oct 19:57:56 20:04:34 23° 65° (ENE) 20:11:11 435.215
STARS 16 Oct 20:02:51 20:05:55 19° 295° (WNW) 20:08:59 437.465
CUTE-I 16 Oct 20:04:03 20:06:43 14° 270° (W) 20:09:23 437.470
XW-2A 16 Oct 20:26:22 20:29:32 36° 262° (W) 20:32:43 145.665 - 145.685
Oscar 11 16 Oct 20:26:27 20:30:34 44° 72° (ENE) 20:34:41 .
CUTE 1.7 + AOD 2 16 Oct 20:29:04 20:31:52 17° 267° (W) 20:34:40 437.475
HO-68 16 Oct 20:30:01 20:36:11 31° 264° (W) 20:42:25 435.675
SEEDS 16 Oct 20:44:19 20:47:14 18° 267° (W) 20:50:10 437.485
CUBEBUG 2 16 Oct 20:44:42 20:48:20 23° 267° (W) 20:52:04 437.445
FO-29 16 Oct 20:58:03 21:03:49 28° 95° (E) 21:10:02 435.910
AO-73 16 Oct 20:58:17 21:02:44 55° 260° (W) 21:07:15 145.935
ZACube-1 16 Oct 21:18:18 21:22:18 30° 264° (W) 21:26:22 437.345
STRAND 1 16 Oct 21:18:55 21:23:42 40° 290° (WNW) 21:28:27 437.568
AAUSAT CUBESAT 2 16 Oct 21:21:30 21:24:01 16° 268° (W) 21:26:32 437.432
UWE-3 16 Oct 21:33:39 21:35:36 13° 271° (W) 21:37:35 435.000/436.395/437.385
O/OREOS (USA 219) 16 Oct 21:35:09 21:39:33 53° 107° (ESE) 21:44:01 437.305
DELFI C3 16 Oct 21:51:16 21:55:10 88° 78° (ENE) 21:59:04 145.870
YUBILEINY 16 Oct 21:53:30 22:02:17 76° 266° (W) 22:11:03 435.215
BEESAT 2 16 Oct 21:59:12 22:01:36 15° 43° (NE) 22:04:00 435.950
EO-88 16 Oct 22:03:02 22:06:37 62° 75° (ENE) 22:10:14 145.990 - 145.960
Max Valier Satellite 16 Oct 22:03:09 22:06:53 89° 82° (E) 22:10:38 145.860
Oscar 11 16 Oct 22:04:18 22:06:53 15° 268° (W) 22:09:30 .
UNISAT 6 16 Oct 22:12:16 22:16:12 27° 95° (E) 22:20:03 437.425
BEESAT 3 16 Oct 22:24:53 22:28:51 77° 57° (ENE) 22:32:43 437.485
TIGRISAT 16 Oct 22:28:00 22:32:18 36° 97° (E) 22:36:28 435.000
AO-85 16 Oct 22:37:12 22:41:07 28° 50° (NE) 22:45:17 145.980
FO-29 16 Oct 22:42:31 22:48:59 55° 289° (WNW) 22:56:11 435.910
PRISM 16 Oct 22:57:33 23:01:16 33° 98° (E) 23:05:00 437.425
LO-87 16 Oct 23:06:02 23:09:26 43° 74° (ENE) 23:12:52 145.935 - 145.965
RS-15 16 Oct 23:16:12 23:18:16 11° 92° (E) 23:20:19 29.354- 29.394
O/OREOS (USA 219) 16 Oct 23:16:23 23:19:19 17° 305° (NW) 23:22:15 437.305
SPROUT 16 Oct 23:22:46 23:24:30 12° 63° (ENE) 23:26:15 437.525
ESTCUBE 1 16 Oct 23:25:56 23:30:19 56° 73° (ENE) 23:34:43 437.505/2401.250
BEESAT 2 16 Oct 23:35:44 23:39:43 60° 241° (WSW) 23:43:37 435.950
VELOX 1 16 Oct 23:36:17 23:38:10 13° 62° (ENE) 23:40:03 145.980
UNISAT 6 16 Oct 23:48:51 23:52:50 29° 291° (WNW) 23:56:44 437.425
YUBILEINY 16 Oct 23:53:43 23:57:29 13° 285° (WNW) 00:01:15 435.215
EO-79 17 Oct 00:00:08 00:02:47 16° 92° (E) 00:05:24 145.935-145.965
POLYITAN 1 17 Oct 00:03:31 00:06:22 17° 93° (E) 00:09:12 437.675
TIGRISAT 17 Oct 00:05:10 00:08:43 22° 294° (WNW) 00:12:12 435.000
AO-85 17 Oct 00:17:21 00:21:34 36° 245° (WSW) 00:26:03 145.980
QB50P2 17 Oct 00:22:42 00:26:32 31° 97° (E) 00:30:19 145.880/145.840
AIST 2D 17 Oct 00:25:43 00:29:11 78° 283° (WNW) 00:32:37 435.315
NANOSAT C BR1 17 Oct 00:30:11 00:33:58 30° 97° (E) 00:37:42 145.865
PRISM 17 Oct 00:33:22 00:36:18 19° 293° (WNW) 00:39:14 437.425
LO-87 17 Oct 00:42:19 00:43:04 10° 269° (W) 00:43:49 145.935 - 145.965
DUCHIFAT 1 17 Oct 00:43:08 00:47:04 37° 98° (E) 00:50:59 145.980
50 SAT 17 Oct 00:47:56 00:50:00 16° 68° (ENE) 00:52:05 437.505
DX 1 17 Oct 00:53:49 00:57:04 21° 66° (ENE) 01:00:21 434.975-435.025
SPROUT 17 Oct 00:55:39 00:59:50 61° 259° (WSW) 01:04:06 437.525
ESTCUBE 1 17 Oct 01:05:18 01:07:27 13° 269° (W) 01:09:36 437.505/2401.250
BUGSAT 1 17 Oct 01:07:38 01:10:31 18° 93° (E) 01:13:23 437.445
VELOX 1 17 Oct 01:09:45 01:14:04 62° 258° (WSW) 01:18:25 145.980
RS-15 17 Oct 01:16:05 01:27:56 59° 112° (ESE) 01:39:50 29.354- 29.394
Oscar 19 17 Oct 01:16:22 01:18:14 12° 89° (E) 01:20:05 437.125/150
UKube-1 17 Oct 01:25:44 01:29:26 29° 69° (ENE) 01:33:10 .
EO-79 17 Oct 01:34:41 01:38:43 41° 288° (WNW) 01:42:42 145.935-145.965
POLYITAN 1 17 Oct 01:38:20 01:42:17 38° 289° (WNW) 01:46:12 437.675
QB50P2 17 Oct 01:58:51 02:02:07 22° 293° (WNW) 02:05:20 145.880/145.840
NANOSAT C BR1 17 Oct 02:06:12 02:09:29 22° 293° (WNW) 02:12:45 145.865
50 SAT 17 Oct 02:19:29 02:22:09 23° 264° (W) 02:24:49 437.505
DUCHIFAT 1 17 Oct 02:19:31 02:22:26 18° 294° (WNW) 02:25:21 145.980
DX 1 17 Oct 02:29:09 02:33:02 33° 262° (W) 02:36:57 434.975-435.025
M-CUBED/EXP-1 PRIME 17 Oct 02:30:01 02:33:24 47° 106° (ESE) 02:36:59 437.505
ITUPSAT 1 17 Oct 02:35:37 02:39:22 23° 66° (ENE) 02:43:07 437.325
BUGSAT 1 17 Oct 02:42:05 02:45:59 37° 289° (WNW) 02:49:50 437.445
MOZHAYETS 4 17 Oct 02:43:10 02:47:07 28° 69° (ENE) 02:51:04
Oscar 19 17 Oct 02:52:59 02:58:06 76° 286° (WNW) 03:03:11 437.125/150
Gurwin Techsat 1B 17 Oct 02:53:06 02:58:26 74° 103° (ESE) 03:03:44 435.225
BEESAT 17 Oct 02:53:10 02:57:27 34° 69° (ENE) 03:01:46 436.000
UKube-1 17 Oct 03:02:02 03:05:26 23° 265° (W) 03:08:52 .
NO-84 17 Oct 03:19:17 03:20:44 12° 121° (ESE) 03:22:11 435.350 FM
ITAMSAT 1 17 Oct 03:20:14 03:21:29 11° 89° (E) 03:22:45 435.822/435.867
RS-15 17 Oct 03:29:04 03:40:49 48° 316° (NW) 03:52:34 29.354- 29.394
M-CUBED/EXP-1 PRIME 17 Oct 04:06:25 04:07:30 11° 299° (WNW) 04:08:37 437.505
ITUPSAT 1 17 Oct 04:12:30 04:16:56 38° 262° (W) 04:21:25 437.325
AO-7 17 Oct 04:14:56 04:22:59 52° 102° (ESE) 04:31:00 .
MOZHAYETS 4 17 Oct 04:20:13 04:24:11 28° 264° (W) 04:28:10
CUBESAT XI-V 17 Oct 04:20:21 04:24:55 63° 75° (ENE) 04:29:30 437.345
BEESAT 17 Oct 04:31:23 04:35:15 24° 265° (W) 04:39:08 436.000
Gurwin Techsat 1B 17 Oct 04:34:50 04:37:43 15° 300° (WNW) 04:40:37 435.225
KKS-1 17 Oct 04:38:14 04:42:03 29° 69° (ENE) 04:45:54 437.445
NO-84 17 Oct 04:53:18 04:57:37 86° 132° (SE) 05:01:49 435.350 FM
ITAMSAT 1 17 Oct 04:56:18 05:01:34 85° 285° (WNW) 05:06:47 435.822/435.867
STARS 17 Oct 05:21:41 05:25:37 34° 70° (ENE) 05:29:37 437.465
DOVE 4 17 Oct 05:37:18 05:41:47 34° 97° (E) 05:46:26 437.250
RS-15 17 Oct 05:48:27 05:57:30 23° 347° (NNW) 06:06:24 29.354- 29.394
CUBESAT XI-V 17 Oct 06:00:50 06:02:41 12° 270° (W) 06:04:33 437.345
AO-7 17 Oct 06:08:08 06:15:27 37° 300° (WNW) 06:22:47 .
O/OREOS (USA 219) 17 Oct 06:08:37 06:10:02 11° 51° (NE) 06:11:28 437.305
KKS-1 17 Oct 06:14:58 06:18:34 24° 265° (W) 06:22:12 437.445
LilacSat-2 17 Oct 06:22:30 06:25:24 21° 95° (E) 06:28:16 437.200
XW-2F 17 Oct 06:25:30 06:28:15 19° 94° (E) 06:30:59 145.980 - 146.000
KAITUO 1B 17 Oct 06:30:28 06:32:57 17° 94° (E) 06:35:26 145.475/437.950
NO-84 17 Oct 06:32:14 06:35:28 21° 334° (NNW) 06:38:36 435.350 FM
XW-2D 17 Oct 06:34:26 06:37:41 28° 97° (E) 06:40:55 145.860 - 145.880
ITAMSAT 1 17 Oct 06:38:39 06:40:11 11° 302° (WNW) 06:41:43 435.822/435.867
CUTE-I 17 Oct 06:38:46 06:43:24 29° 96° (E) 06:47:59 437.470
XW-2B 17 Oct 06:47:33 06:51:04 39° 98° (E) 06:54:34 145.730 - 145.750
NUDT-PHONESAT 17 Oct 06:50:23 06:53:36 29° 97° (E) 06:56:47 437.300
STRAND 1 17 Oct 06:55:33 07:00:04 33° 68° (ENE) 07:04:38 437.568
STARS 17 Oct 06:58:46 07:02:02 20° 266° (W) 07:05:19 437.465
XW-2C 17 Oct 07:10:24 07:14:09 83° 102° (ESE) 07:17:52 145.795 - 145.815
DOVE 4 17 Oct 07:15:13 07:19:18 27° 291° (WNW) 07:23:32 437.250
SO-50 17 Oct 07:28:52 07:32:49 32° 114° (ESE) 07:36:48 436.795
O/OREOS (USA 219) 17 Oct 07:45:30 07:50:07 86° 247° (WSW) 07:54:41 437.305
UWE-3 17 Oct 07:46:09 07:48:21 13° 90° (E) 07:50:31 435.000/436.395/437.385
XW-2A 17 Oct 07:49:39 07:51:01 12° 92° (E) 07:52:23 145.665 - 145.685
LilacSat-2 17 Oct 07:56:33 07:59:37 24° 290° (WNW) 08:02:39 437.200
HO-68 17 Oct 07:56:50 08:03:53 54° 101° (E) 08:10:53 435.675
XW-2F 17 Oct 07:59:14 08:02:19 25° 290° (WNW) 08:05:24 145.980 - 146.000
KAITUO 1B 17 Oct 08:03:47 08:06:57 28° 289° (WNW) 08:10:06 145.475/437.950
RS-15 17 Oct 08:06:04 08:15:50 27° 24° (NNE) 08:25:13 29.354- 29.394
XW-2D 17 Oct 08:09:03 08:11:39 18° 292° (WNW) 08:14:14 145.860 - 145.880
CUTE 1.7 + AOD 2 17 Oct 08:12:26 08:16:39 83° 104° (ESE) 08:20:49 437.475
CUTE-I 17 Oct 08:18:36 08:23:26 36° 292° (WNW) 08:28:16 437.470
XW-2B 17 Oct 08:22:58 08:24:53 14° 294° (WNW) 08:26:47 145.730 - 145.750
NUDT-PHONESAT 17 Oct 08:24:50 08:27:13 17° 292° (WNW) 08:29:36 437.300
SEEDS 17 Oct 08:26:46 08:30:55 73° 101° (E) 08:35:04 437.485
CUBEBUG 2 17 Oct 08:34:45 08:39:27 83° 102° (ESE) 08:44:00 437.445
STRAND 1 17 Oct 08:34:50 08:39:13 29° 264° (W) 08:43:39 437.568
PCSat 17 Oct 08:36:18 08:40:47 27° 108° (ESE) 08:45:17 145.827
AO-73 17 Oct 08:47:06 08:50:54 28° 95° (E) 08:54:35 145.935
FO-29 17 Oct 08:55:09 09:00:13 63° 73° (ENE) 09:05:37 435.910
Tancredo 1 17 Oct 08:58:59 08:59:23 10° 133° (SE) 08:59:47 437.200
YUBILEINY 17 Oct 08:59:19 09:06:01 26° 81° (E) 09:12:43 435.215
AAUSAT CUBESAT 2 17 Oct 09:01:49 09:05:56 80° 100° (E) 09:10:03 437.432
ZACube-1 17 Oct 09:06:31 09:10:51 54° 100° (E) 09:15:02 437.345
SO-50 17 Oct 09:09:22 09:13:15 29° 312° (NW) 09:17:10 436.795
UNISAT 6 17 Oct 09:10:30 09:14:09 24° 67° (ENE) 09:17:51 437.425
UWE-3 17 Oct 09:20:43 09:25:10 55° 286° (WNW) 09:29:28 435.000/436.395/437.385
XW-2A 17 Oct 09:20:50 09:23:50 31° 288° (WNW) 09:26:49 145.665 - 145.685
TIGRISAT 17 Oct 09:25:53 09:29:54 31° 69° (ENE) 09:33:59 435.000
DELFI C3 17 Oct 09:30:38 09:31:48 11° 91° (E) 09:32:57 145.870
HO-68 17 Oct 09:45:11 09:51:12 30° 299° (WNW) 09:57:13 435.675
PRISM 17 Oct 09:46:34 09:49:44 22° 68° (ENE) 09:52:54 437.425
Oscar 11 17 Oct 09:49:43 09:54:01 81° 285° (WNW) 09:58:18 .
NO-84 17 Oct 09:51:17 09:53:07 13° 16° (NNE) 09:54:53 435.350 FM
CUBEBUG 2 17 Oct 10:14:12 10:15:18 11° 299° (WNW) 10:16:24 437.445
PCSat 17 Oct 10:18:51 10:23:57 42° 305° (NW) 10:29:06 145.827
RS-15 17 Oct 10:19:11 10:31:09 68° 53° (NE) 10:42:24 29.354- 29.394
AO-73 17 Oct 10:23:26 10:26:59 24° 292° (WNW) 10:30:27 145.935
Tancredo 1 17 Oct 10:29:28 10:31:03 23° 329° (NNW) 10:32:39 437.200
FO-29 17 Oct 10:43:22 10:45:58 14° 271° (W) 10:48:38 435.910
ZACube-1 17 Oct 10:44:18 10:46:36 14° 297° (WNW) 10:48:53 437.345
UNISAT 6 17 Oct 10:46:26 10:50:38 35° 263° (W) 10:54:54 437.425
EO-79 17 Oct 10:53:08 10:54:49 12° 63° (ENE) 10:56:30 145.935-145.965
YUBILEINY 17 Oct 10:53:27 11:02:02 65° 281° (W) 11:10:42 435.215
POLYITAN 1 17 Oct 10:56:25 10:58:29 13° 63° (ENE) 11:00:33 437.675
AIST 2D 17 Oct 10:59:16 11:02:23 31° 72° (ENE) 11:05:31 435.315
TIGRISAT 17 Oct 11:02:42 11:06:32 26° 265° (W) 11:10:27 435.000
DELFI C3 17 Oct 11:02:59 11:06:49 51° 286° (WNW) 11:10:39 145.870
EO-88 17 Oct 11:05:21 11:08:59 89° 86° (E) 11:12:35 145.990 - 145.960
Max Valier Satellite 17 Oct 11:07:05 11:10:43 60° 284° (WNW) 11:14:18 145.860
nSIGHT-1 17 Oct 11:07:18 11:10:14 35° 137° (SE) 11:13:11 .
QB50P2 17 Oct 11:14:55 11:18:17 23° 68° (ENE) 11:21:40 145.880/145.840
ESTCUBE 1 17 Oct 11:20:51 11:22:30 12° 90° (E) 11:24:10 437.505/2401.250
PRISM 17 Oct 11:21:25 11:24:52 27° 264° (W) 11:28:19 437.425
NANOSAT C BR1 17 Oct 11:21:55 11:25:11 22° 68° (ENE) 11:28:29 145.865
NO-84 17 Oct 11:27:47 11:31:23 44° 37° (NE) 11:34:41 435.350 FM
ISS 17 Oct 11:31:04 11:34:14 55° 139° (SE) 11:37:25 437.550
DUCHIFAT 1 17 Oct 11:34:23 11:37:54 26° 69° (ENE) 11:41:26 145.980
BUGSAT 1 17 Oct 11:57:55 11:59:41 13° 63° (ENE) 12:01:28 437.445
LO-87 17 Oct 12:06:12 12:09:48 59° 101° (E) 12:13:21 145.935 - 145.965
BEESAT 3 17 Oct 12:15:27 12:17:30 14° 109° (ESE) 12:19:32 437.485
EO-79 17 Oct 12:25:50 12:30:01 62° 259° (W) 12:34:16 145.935-145.965
POLYITAN 1 17 Oct 12:29:35 12:33:46 56° 260° (W) 12:37:59 437.675
Oscar 19 17 Oct 12:32:01 12:35:32 19° 63° (ENE) 12:39:03 437.125/150
RS-15 17 Oct 12:32:39 12:42:41 35° 255° (WSW) 12:52:18 29.354- 29.394
AIST 2D 17 Oct 12:33:44 12:35:38 14° 267° (W) 12:37:33 435.315
Gurwin Techsat 1B 17 Oct 12:36:50 12:39:44 15° 60° (ENE) 12:42:37 435.225
SPROUT 17 Oct 12:42:07 12:45:31 22° 94° (E) 12:48:53 437.525
nSIGHT-1 17 Oct 12:43:45 12:46:33 27° 333° (NNW) 12:49:22 .
QB50P2 17 Oct 12:50:11 12:53:54 29° 264° (W) 12:57:40 145.880/145.840
ESTCUBE 1 17 Oct 12:55:17 12:59:41 61° 286° (WNW) 13:04:05 437.505/2401.250
NANOSAT C BR1 17 Oct 12:56:57 13:00:42 30° 263° (W) 13:04:30 145.865
YUBILEINY 17 Oct 12:57:39 13:00:47 12° 303° (WNW) 13:03:56 435.215
VELOX 1 17 Oct 13:00:27 13:04:04 24° 95° (E) 13:07:41 145.980
NO-84 17 Oct 13:05:59 13:08:25 18° 236° (SW) 13:10:42 435.350 FM
ISS 17 Oct 13:08:16 13:10:54 22° 337° (NNW) 13:13:33 437.550
DUCHIFAT 1 17 Oct 13:09:58 13:13:28 25° 265° (W) 13:17:01 145.980
M-CUBED/EXP-1 PRIME 17 Oct 13:15:37 13:19:01 55° 70° (ENE) 13:22:16 437.505
AO-7 17 Oct 13:25:41 13:30:02 16° 47° (NE) 13:34:24 .
BEESAT 2 17 Oct 13:26:32 13:29:46 24° 113° (ESE) 13:33:03 435.950
BUGSAT 1 17 Oct 13:30:26 13:34:30 58° 259° (W) 13:38:40 437.445
50 SAT 17 Oct 13:39:08 13:41:06 15° 94° (E) 13:43:04 437.505
BEESAT 3 17 Oct 13:50:42 13:54:35 50° 305° (NW) 13:58:31 437.485
Oscar 19 17 Oct 14:09:21 14:14:24 55° 259° (W) 14:19:28 437.125/150
Gurwin Techsat 1B 17 Oct 14:13:44 14:19:01 74° 257° (WSW) 14:24:21 435.225
DX 1 17 Oct 14:17:10 14:21:17 40° 99° (E) 14:25:23 434.975-435.025
SPROUT 17 Oct 14:17:39 14:21:24 30° 290° (WNW) 14:25:08 437.525
nSIGHT-1 17 Oct 14:22:24 14:23:39 12° 353° (N) 14:24:55 .
AO-85 17 Oct 14:31:19 14:35:11 87° 121° (ESE) 14:39:08 145.980
ITAMSAT 1 17 Oct 14:36:34 14:40:00 18° 62° (ENE) 14:43:26 435.822/435.867
VELOX 1 17 Oct 14:36:39 14:40:29 30° 291° (WNW) 14:44:19 145.980
ISS 17 Oct 14:47:05 14:48:18 12° 357° (N) 14:49:33 437.550
UKube-1 17 Oct 14:48:11 14:52:26 56° 101° (E) 14:56:41 .
BEESAT 2 17 Oct 15:03:50 15:07:22 30° 310° (NW) 15:10:58 435.950
Tancredo 1 17 Oct 15:07:39 15:08:29 12° 25° (NNE) 15:09:19 437.200
50 SAT 17 Oct 15:10:41 15:13:26 25° 289° (WNW) 15:16:12 437.505
AO-7 17 Oct 15:13:06 15:21:18 68° 67° (ENE) 15:29:30 .
DX 1 17 Oct 15:54:09 15:57:08 18° 295° (WNW) 16:00:08 434.975-435.025
nSIGHT-1 17 Oct 15:59:12 16:01:01 14° 14° (NNE) 16:02:49 .
SO-50 17 Oct 16:00:04 16:04:03 28° 48° (NE) 16:08:03 436.795
ITUPSAT 1 17 Oct 16:12:55 16:17:38 55° 101° (E) 16:22:18 437.325
ITAMSAT 1 17 Oct 16:13:54 16:18:59 58° 259° (W) 16:24:07 435.822/435.867
MOZHAYETS 4 17 Oct 16:14:44 16:19:19 69° 102° (ESE) 16:23:50
AO-85 17 Oct 16:15:02 16:16:11 11° 321° (NW) 16:17:22 145.980
CUBESAT XI-V 17 Oct 16:18:28 16:21:16 16° 92° (E) 16:24:04 437.345
ISS 17 Oct 16:23:36 16:25:50 17° 18° (NNE) 16:28:03 437.550
UKube-1 17 Oct 16:25:52 16:27:58 13° 297° (WNW) 16:30:04 .
BEESAT 17 Oct 16:30:38 16:35:26 86° 102° (ESE) 16:40:12 436.000
Tancredo 1 17 Oct 16:38:36 16:40:08 25° 222° (SW) 16:41:39 437.200
DOVE 4 17 Oct 16:43:03 16:46:34 27° 69° (ENE) 16:50:11 437.250
LilacSat-2 17 Oct 17:05:45 17:06:48 11° 65° (ENE) 17:07:50 437.200
AO-7 17 Oct 17:08:01 17:14:36 26° 265° (W) 17:21:13 .
XW-2D 17 Oct 17:16:12 17:18:14 14° 66° (ENE) 17:20:15 145.860 - 145.880
PCSat 17 Oct 17:24:08 17:28:23 23° 47° (NE) 17:32:37 145.827
XW-2B 17 Oct 17:28:46 17:31:28 19° 68° (ENE) 17:34:10 145.730 - 145.750
NUDT-PHONESAT 17 Oct 17:30:04 17:31:57 14° 66° (ENE) 17:33:50 437.300
nSIGHT-1 17 Oct 17:34:46 17:37:53 49° 32° (NNE) 17:41:00 .
